When you browse on this site, cookies collect data to enhance your experience and personalize the content and advertising you see.
Visit our Privacy Policy to learn more. By continuing to use the site, you agree to this use of cookies and data.
  • In Hungary
  • List of Countries
  • For 7 days
  • Water Temperature
  • Satellite Maps
  • Weather Map
  • News
  • Weather Widgets
  • user-avatar
    Login

    Hourly Weather Manacor

    Today, 19 November, Monday

    Time Temperature Precipitation Wind Pressure Humidity
    00:00 +15°C° 0 mm 6 mps 743 mmHg 85%
    01:00 +14°C° 0.8 mm 6 mps 743 mmHg 86%
    02:00 +14°C° 0.8 mm 6 mps 742 mmHg 87%
    03:00 +14°C° 0.8 mm 6 mps 742 mmHg 88%
    04:00 +14°C° 1 mm 6 mps 741 mmHg 89%
    05:00 +14°C° 1 mm 6 mps 741 mmHg 89%
    06:00 +14°C° 1 mm 6 mps 740 mmHg 89%
    07:00 +14°C° 1.2 mm 6 mps 740 mmHg 89%
    08:00 +14°C° 1.2 mm 6 mps 740 mmHg 89%
    09:00 +14°C° 1.2 mm 6 mps 740 mmHg 89%
    10:00 +14°C° 1.7 mm 6 mps 740 mmHg 89%
    11:00 +14°C° 1.7 mm 6 mps 739 mmHg 88%
    12:00 +13°C° 1.7 mm 6 mps 739 mmHg 88%
    13:00 +13°C° 1.2 mm 6 mps 739 mmHg 87%
    14:00 +13°C° 1.2 mm 6 mps 739 mmHg 86%
    15:00 +12°C° 1.2 mm 7 mps 739 mmHg 85%
    16:00 +13°C° 0.2 mm 6 mps 739 mmHg 85%
    17:00 +13°C° 0.2 mm 6 mps 739 mmHg 85%
    18:00 +13°C° 0.2 mm 6 mps 739 mmHg 85%
    19:00 +13°C° 0 mm 5 mps 739 mmHg 84%
    20:00 +13°C° 0 mm 5 mps 740 mmHg 84%
    21:00 +13°C° 0 mm 4 mps 740 mmHg 83%
    22:00 +13°C° 0 mm 3 mps 740 mmHg 83%
    23:00 +12°C° 0 mm 3 mps 740 mmHg 83%

    Tomorrow, 20 November, Tuesday

    Time Temperature Precipitation Wind Pressure Humidity
    00:00 +13°C° 0 mm 2 mps 741 mmHg 83%
    01:00 +13°C° 0 mm 2 mps 741 mmHg 83%
    02:00 +13°C° 0 mm 2 mps 741 mmHg 83%
    03:00 +13°C° 0 mm 2 mps 741 mmHg 83%
    04:00 +13°C° 0 mm 2 mps 741 mmHg 84%
    05:00 +13°C° 0 mm 2 mps 741 mmHg 84%
    06:00 +13°C° 0 mm 2 mps 741 mmHg 85%
    07:00 +13°C° 0 mm 3 mps 742 mmHg 81%
    08:00 +14°C° 0 mm 4 mps 742 mmHg 78%
    09:00 +15°C° 0 mm 4 mps 743 mmHg 75%
    10:00 +16°C° 0 mm 5 mps 743 mmHg 73%
    11:00 +16°C° 0 mm 6 mps 743 mmHg 71%
    12:00 +17°C° 0 mm 7 mps 743 mmHg 68%
    13:00 +17°C° 0.1 mm 7 mps 743 mmHg 69%
    14:00 +17°C° 0.1 mm 7 mps 743 mmHg 69%
    15:00 +17°C° 0.1 mm 8 mps 743 mmHg 69%
    16:00 +16°C° 0 mm 8 mps 743 mmHg 73%
    17:00 +16°C° 0 mm 8 mps 744 mmHg 76%
    18:00 +15°C° 0 mm 8 mps 744 mmHg 79%
    19:00 +15°C° 0.5 mm 8 mps 744 mmHg 80%
    20:00 +15°C° 0.5 mm 8 mps 744 mmHg 82%
    21:00 +15°C° 0.5 mm 8 mps 744 mmHg 83%
    22:00 +15°C° 0.3 mm 8 mps 745 mmHg 80%
    23:00 +15°C° 0.3 mm 8 mps 745 mmHg 78%

    Day after tomorrow, 21 November, Wednesday

    Time Temperature Precipitation Wind Pressure Humidity
    00:00 +15°C° 0.3 mm 9 mps 745 mmHg 75%
    01:00 +13°C° 0 mm 9 mps 745 mmHg 75%
    02:00 +13°C° 0 mm 9 mps 745 mmHg 74%
    03:00 +13°C° 0 mm 10 mps 746 mmHg 74%
    04:00 +13°C° 0 mm 9 mps 746 mmHg 74%
    05:00 +13°C° 0 mm 9 mps 747 mmHg 74%
    06:00 +13°C° 0 mm 9 mps 747 mmHg 74%
    07:00 +15°C° 0 mm 9 mps 748 mmHg 72%
    08:00 +16°C° 0 mm 9 mps 748 mmHg 69%
    09:00 +16°C° 0 mm 9 mps 749 mmHg 66%
    10:00 +16°C° 0 mm 9 mps 749 mmHg 65%
    11:00 +17°C° 0 mm 9 mps 750 mmHg 63%
    12:00 +17°C° 0 mm 9 mps 750 mmHg 62%
    13:00 +17°C° 0 mm 8 mps 750 mmHg 62%
    14:00 +17°C° 0 mm 8 mps 750 mmHg 63%
    15:00 +16°C° 0 mm 7 mps 751 mmHg 63%
    16:00 +16°C° 0 mm 7 mps 751 mmHg 66%
    17:00 +15°C° 0 mm 6 mps 751 mmHg 69%
    18:00 +14°C° 0 mm 6 mps 752 mmHg 72%
    19:00 +14°C° 0 mm 5 mps 752 mmHg 72%
    20:00 +14°C° 0 mm 4 mps 752 mmHg 72%
    21:00 +14°C° 0 mm 4 mps 753 mmHg 72%
    22:00 +14°C° 0 mm 4 mps 753 mmHg 73%
    23:00 +14°C° 0 mm 3 mps 753 mmHg 74%

    22 November, Thursday

    Time Temperature Precipitation Wind Pressure Humidity
    00:00 +14°C° 0 mm 3 mps 753 mmHg 74%
    01:00 +14°C° 0 mm 3 mps 753 mmHg 77%
    02:00 +15°C° 0 mm 2 mps 753 mmHg 79%
    03:00 +15°C° 0 mm 2 mps 753 mmHg 81%
    04:00 +15°C° 0 mm 2 mps 753 mmHg 83%
    05:00 +15°C° 0 mm 2 mps 753 mmHg 84%
    06:00 +14°C° 0 mm 2 mps 753 mmHg 85%
    07:00 +15°C° 0 mm 2 mps 754 mmHg 82%
    08:00 +16°C° 0 mm 2 mps 754 mmHg 80%
    09:00 +17°C° 0 mm 2 mps 754 mmHg 77%
    10:00 +18°C° 0 mm 2 mps 754 mmHg 74%
    11:00 +19°C° 0 mm 2 mps 754 mmHg 71%
    12:00 +19°C° 0 mm 2 mps 754 mmHg 68%
    13:00 +19°C° 0 mm 2 mps 754 mmHg 68%
    14:00 +19°C° 0 mm 2 mps 754 mmHg 69%
    15:00 +19°C° 0 mm 2 mps 754 mmHg 70%
    16:00 +18°C° 0 mm 3 mps 754 mmHg 74%
    17:00 +17°C° 0 mm 3 mps 754 mmHg 78%
    18:00 +16°C° 0 mm 3 mps 754 mmHg 82%
    19:00 +16°C° 0 mm 3 mps 754 mmHg 84%
    20:00 +16°C° 0 mm 3 mps 754 mmHg 86%
    21:00 +16°C° 0 mm 3 mps 755 mmHg 88%
    22:00 +16°C° 0 mm 3 mps 754 mmHg 88%
    23:00 +16°C° 0 mm 3 mps 754 mmHg 89%

    23 November, Friday

    Time Temperature Precipitation Wind Pressure Humidity
    00:00 +16°C° 0 mm 3 mps 754 mmHg 90%
    01:00 +16°C° 0 mm 3 mps 754 mmHg 88%
    02:00 +16°C° 0 mm 3 mps 754 mmHg 85%
    03:00 +16°C° 0 mm 3 mps 753 mmHg 83%
    04:00 +15°C° 0 mm 4 mps 753 mmHg 83%
    05:00 +15°C° 0 mm 4 mps 753 mmHg 82%
    06:00 +15°C° 0 mm 4 mps 753 mmHg 82%
    07:00 +17°C° 0 mm 4 mps 753 mmHg 78%
    08:00 +17°C° 0 mm 5 mps 753 mmHg 73%
    09:00 +19°C° 0 mm 5 mps 754 mmHg 69%
    10:00 +19°C° 0 mm 5 mps 753 mmHg 65%
    11:00 +20°C° 0 mm 5 mps 753 mmHg 61%
    12:00 +21°C° 0 mm 6 mps 753 mmHg 57%
    13:00 +20°C° 0 mm 5 mps 753 mmHg 58%
    14:00 +20°C° 0 mm 5 mps 753 mmHg 60%
    15:00 +19°C° 0 mm 5 mps 752 mmHg 62%
    16:00 +17°C° 0 mm 5 mps 752 mmHg 67%
    17:00 +16°C° 0 mm 5 mps 752 mmHg 72%
    18:00 +15°C° 0 mm 5 mps 752 mmHg 77%
    19:00 +16°C° 0 mm 6 mps 752 mmHg 77%
    20:00 +16°C° 0 mm 6 mps 752 mmHg 77%
    21:00 +16°C° 0 mm 6 mps 752 mmHg 77%
    22:00 +16°C° 0 mm 6 mps 752 mmHg 76%
    23:00 +16°C° 0 mm 7 mps 752 mmHg 75%

    24 November, Saturday

    Time Temperature Precipitation Wind Pressure Humidity
    00:00 +16°C° 0 mm 7 mps 751 mmHg 74%
    01:00 +16°C° 0 mm 7 mps 751 mmHg 75%
    02:00 +16°C° 0 mm 7 mps 751 mmHg 75%
    03:00 +16°C° 0 mm 7 mps 751 mmHg 75%
    04:00 +16°C° 0 mm 6 mps 751 mmHg 79%
    05:00 +16°C° 0 mm 6 mps 751 mmHg 83%
    06:00 +16°C° 0 mm 6 mps 751 mmHg 87%
    07:00 +16°C° 0 mm 5 mps 752 mmHg 84%
    08:00 +18°C° 0 mm 4 mps 752 mmHg 81%
    09:00 +19°C° 0 mm 3 mps 752 mmHg 78%
    10:00 +19°C° 0 mm 3 mps 752 mmHg 76%
    11:00 +19°C° 0 mm 3 mps 752 mmHg 74%
    12:00 +19°C° 0 mm 3 mps 752 mmHg 73%
    13:00 +19°C° 0 mm 2 mps 752 mmHg 75%
    14:00 +18°C° 0 mm 2 mps 752 mmHg 77%
    15:00 +18°C° 0 mm 2 mps 752 mmHg 78%
    16:00 +17°C° 0.1 mm 2 mps 752 mmHg 80%
    17:00 +17°C° 0.1 mm 2 mps 753 mmHg 82%
    18:00 +17°C° 0.1 mm 2 mps 753 mmHg 84%
    19:00 +16°C° 0.2 mm 2 mps 753 mmHg 86%
    20:00 +16°C° 0.2 mm 2 mps 753 mmHg 87%
    21:00 +16°C° 0.2 mm 2 mps 753 mmHg 89%
    22:00 +16°C° 0.6 mm 3 mps 753 mmHg 89%
    23:00 +16°C° 0.6 mm 3 mps 753 mmHg 90%
    Show more